User: anonymous   Login
Location: Brede
(50.9167°N, 0.6000°E)
Time: 09:24:33
(UTC+00:00)
Language:

Cosmos 2266 Rocket - Orbit

View from above orbital plane
View from above orbital plane
View from above satellite
View from above satellite

Ground track
Ground track

The orbit data is extracted from the following two-line orbital elements,

1 22889U 93070B   20293.93213265 +.00000137 +00000-0 +11988-3 0  9996
2 22889 082.9421 129.5599 0050900 048.9251 311.6287 13.77929831355494
Epoch (UTC): 19 October 2020 22:22:16
Eccentricity: 0.0050900
inclination: 82.9421°
perigee height: 934 km
apogee height: 1008 km
right ascension of ascending node: 129.5599°
argument of perigee: 48.9251°
revolutions per day: 13.77929831
mean anomaly at epoch: 311.6287°
orbit number at epoch: 35549

The dashed part of the orbit path shows where the satellite is in the earth's shadow,  

DLR